Overview Statistics Trail Chart Weather Telemetry Raw packets
 

This is the latest recevied weather packets stored in our database for station/object KD8DNS. If no packets are shown the sender has not sent any weather packets the latest 10 day(s).

<< 2 3 4 5 6 7 8 >>
Time Temp. Humidity Pressure Rain* Wind** Luminosity Snow
1788650734 27.22° C 79% 1015.2 hPa 0 mm - 7 W/m² -
1788650430 27.22° C 78% 1015 hPa 0 mm - 10 W/m² -
1788650125 27.22° C 77% 1015.1 hPa 0 mm - 10 W/m² -
1788649821 27.78° C 77% 1015 hPa 0 mm - 10 W/m² -
1788649520 27.78° C 77% 1015 hPa 0 mm - 8 W/m² -
1788649219 27.78° C 76% 1015.4 hPa 0 mm - 8 W/m² -
1788648914 27.78° C 75% 1015.2 hPa 0 mm - 9 W/m² -
1788648609 28.33° C 74% 1015.2 hPa 0 mm - 12 W/m² -
1788648304 28.89° C 74% 1015.3 hPa 0 mm - 14 W/m² -
1788648003 29.44° C 71% 1015.3 hPa 0 mm - 27 W/m² -
1788647701 29.44° C 69% 1015.3 hPa 0 mm - 39 W/m² -
1788647396 30° C 69% 1015 hPa 0 mm - 41 W/m² -
1788647096 30° C 71% 1014.8 hPa 0 mm - 43 W/m² -
1788646791 30° C 70% 1015 hPa 0 mm - 46 W/m² -
1788646488 29.44° C 70% 1014.9 hPa 0 mm - 55 W/m² -
1788646184 30° C 68% 1014.7 hPa 0 mm - 49 W/m² -
1788645880 29.44° C 69% 1014.9 hPa 0 mm - 50 W/m² -
1788645578 30° C 67% 1014.9 hPa 0 mm - 55 W/m² -
1788645274 30° C 69% 1014.8 hPa 0 mm - 163 W/m² -
1788644970 30° C 69% 1014.9 hPa 0 mm - 147 W/m² -
1788644666 30° C 68% 1015 hPa 0 mm - 70 W/m² -
1788644360 30° C 70% 1015 hPa 0 mm - 60 W/m² -
1788644056 30° C 70% 1014.9 hPa 0 mm - 79 W/m² -
1788643752 30° C 70% 1015.3 hPa 0 mm - 82 W/m² -
1788643446 30° C 69% 1015.4 hPa 0 mm - 75 W/m² -

* Rain latest hour (hover to see other rain measurements)
** Current wind speed in m/s (hover to see current wind gust speed)